This is the latest recevied weather packets stored in our database for station/object WB4YDL. If no packets are shown the sender has not sent any weather packets the latest 10 day(s).
| Time | Temp. | Humidity | Pressure | Rain* | Wind** | Luminosity | Snow |
|---|---|---|---|---|---|---|---|
| 1777747378 | 19.44° C | 40% | 1011.6 hPa | 0 mm | - | 180 W/m² | - |
| 1777747074 | 18.89° C | 43% | 1011.8 hPa | 0 mm | - | 956 W/m² | - |
| 1777746771 | 17.78° C | 44% | 1012 hPa | 0 mm | - | 397 W/m² | - |
| 1777746466 | 18.33° C | 45% | 1011.8 hPa | 0 mm | - | 215 W/m² | - |
| 1777746161 | 18.89° C | 39% | 1012 hPa | 0 mm | - | 219 W/m² | - |
| 1777745858 | 18.89° C | 40% | 1012 hPa | 0 mm | - | 246 W/m² | - |
| 1777745552 | 17.78° C | 39% | 1011.9 hPa | 0 mm | - | 967 W/m² | - |
| 1777745248 | 18.89° C | 38% | 1011.9 hPa | 0 mm | - | 302 W/m² | - |
| 1777744945 | 18.33° C | 46% | 1011.9 hPa | 0 mm | - | 1039 W/m² | - |
| 1777744640 | 18.89° C | 43% | 1012 hPa | 0 mm | - | 330 W/m² | - |
| 1777744335 | 19.44° C | 40% | 1012 hPa | 0 mm | - | 413 W/m² | - |
| 1777744032 | 18.33° C | 42% | 1011.9 hPa | 0 mm | - | 977 W/m² | - |
| 1777743729 | 18.33° C | 43% | 1012.1 hPa | 0 mm | - | 499 W/m² | - |
| 1777743426 | 18.33° C | 42% | 1012.1 hPa | 0 mm | - | 361 W/m² | - |
| 1777743123 | 18.89° C | 43% | 1012.1 hPa | 0 mm | - | 1038 W/m² | - |
| 1777742821 | 18.89° C | 42% | 1012 hPa | 0 mm | - | 842 W/m² | - |
| 1777742517 | 18.33° C | 45% | 1012.2 hPa | 0 mm | - | 846 W/m² | - |
| 1777742212 | 17.78° C | 46% | 1012.2 hPa | 0 mm | - | 334 W/m² | - |
| 1777741910 | 17.78° C | 47% | 1012.2 hPa | 0 mm | - | 379 W/m² | - |
| 1777741607 | 17.78° C | 48% | 1012.2 hPa | 0 mm | - | 298 W/m² | - |
| 1777741304 | 17.22° C | 47% | 1012.4 hPa | 0 mm | - | 985 W/m² | - |
| 1777741000 | 17.22° C | 49% | 1012.5 hPa | 0 mm | - | 472 W/m² | - |
| 1777740698 | 17.78° C | 49% | 1012.5 hPa | 0 mm | - | 315 W/m² | - |
| 1777740393 | 18.33° C | 53% | 1012.4 hPa | 0 mm | - | 841 W/m² | - |
| 1777740091 | 17.78° C | 53% | 1012.6 hPa | 0 mm | - | 846 W/m² | - |
* Rain latest hour (hover to see other rain measurements)
** Current wind speed in m/s (hover to see current wind gust speed)